Вернуться в каталог

METEOR 2-17 DEB

АктивенPO
NORAD 38285·DEBRIS·🇷🇺 Russia

Запущен Jan 30, 1988 с Plesetsk Cosmodrome

Loading…

Ближайшие Пролёты (ближайшие 24 часа)

TLE

УстаревающийSource: Space-Track

Эпоха: Sep 10, 2026, 04:02 UTC

1 38285U 88005AN  26253.16843177  .00001142  00000-0  77324-3 0  9996
2 38285  82.5467 218.5184 0015906  23.3594 336.8294 13.99459346222695

Отслеживайте METEOR 2-17 DEB в реальном времени с AllMySat

Download on the App Store